Regional Weather Roundup
Issued by NWS State College, PA

Current Version |  Previous Version |  Text Only |  Print | Product List |  Glossary On
Versions: 1 2 3 4 5 6 7 8 9 10 11 12 13 14 15 16 17 18 19 20 21 22 23 24 25 26 27 28 29 30 31 32 33 34 35 36 37 38 39 40 41 42 43 44 45 46 47 48 49 50
154
ASUS41 KCTP 162110
RWRCTP

REGIONAL WEATHER ROUNDUP
NATIONAL WEATHER SERVICE STATE COLLEGE PA
500 PM EDT SUN JUN 16 2024

Note: "fair" indicates few or no clouds below 12,000 feet with no
significant weather and/or obstructions to visibility.

* = STATION THAT DOES NOT REPORT PRECIPITATION /E.G. RAIN...SNOW...ETC/
    THUNDER OR FOG.

PAZ002>004-007>009-013>016-020>023-029>032-162200-
WESTERN PENNSYLVANIA

CITY           SKY/WX    TMP DP  RH WIND       PRES   REMARKS
ERIE           SUNNY     78  58  49 NE12      30.05F
MEADVILLE      SUNNY     84  51  31 S7G17     30.07F
FRANKLIN       SUNNY     82  55  39 SW9       30.10F
NEW CASTLE     SUNNY     87  59  38 S8        30.06F
BEAVER COUNTY  MOSUNNY   89  57  33 S6        30.07F
BUTLER         MOSUNNY   87  60  40 S13       30.08F
PITTSBURGH INT MOSUNNY   87  60  40 S8        30.06F
PITTSBURGH     MOSUNNY   86  60  41 S12       30.07F
INDIANA*       MOSUNNY   86  61  42 SE9       30.14S
LATROBE        MOSUNNY   88  63  42 S12G17    30.08F
CONNELLSVILLE  MOSUNNY   85  64  48 S10       30.09F
WASHINGTON CO* MOSUNNY   86  63  45 S9        30.09F
$$

PAZ004>006-010>012-017>019-024>028-033>037-041-042-045-046-049>053-162200-
CENTRAL PENNSYLVANIA

CITY           SKY/WX    TMP DP  RH WIND       PRES   REMARKS
BRADFORD       SUNNY     82  57  42 S10G17    30.14F
ST MARYS       PTSUNNY   77  57  50 SE6       30.18F
DUBOIS         MOSUNNY   81  59  47 SE6       30.12F
CLEARFIELD     MOSUNNY   80  60  50 SE8       30.14F
JOHNSTOWN      MOSUNNY   77  58  51 S9G20     30.16F
SOMERSET       MOSUNNY   77  59  53 SE13G21   30.17F
ALTOONA        MOSUNNY   81  58  45 S12       30.15F
STATE COLLEGE  SUNNY     79  55  44 S13       30.15F
REEDSVILLE     MOSUNNY   81  57  44 E7        30.13F
WELLSBORO      MOSUNNY   77  55  47 S13G20    30.15F
WILLIAMSPORT   MOSUNNY   81  53  37 SW5       30.12F
SELINSGROVE    MOSUNNY   80  55  42 VRB3      30.15F
FT INDIANTOWN  MOSUNNY   82  53  36 S9        30.13F
CAPITAL CITY   MOSUNNY   84  54  35 SE7G16    30.14F
HARRISBURG     PTSUNNY   84  54  35 SE8       30.14F
YORK           MOSUNNY   84  57  39 MISG      30.15F
$$

PAZ038>040-043-044-047-048-054-055-060>062-067>071-162200-
EASTERN PENNSYLVANIA

CITY           SKY/WX    TMP DP  RH WIND       PRES   REMARKS
TOWANDA        SUNNY     81  52  36 S5        30.16F
SCRANTON       MOSUNNY   79  53  40 SW9       30.17F
MOUNT POCONO   MOSUNNY   73  49  42 SW12      30.22F
HAZLETON       MOSUNNY   75  52  43 S5        30.23F
LEHIGHTON      MOSUNNY   79  50  36 S5        30.18F
ALLENTOWN      MOSUNNY   80  51  36 SE7       30.17F
QN CITY/ALNTWN   N/A     82  52  34 S7        30.19F
QUAKERTOWN*    MOSUNNY   82  54  36 VRB5      30.19F
PERKASIE*      MOSUNNY   81  52  36 W6        30.19F
DOYLESTOWN     MOSUNNY   81  53  37 VRB3      30.17F
READING        MOSUNNY   84  52  33 SW8       30.15F
LANCASTER      MOSUNNY   80  55  42 S10       30.17F
COATESVILLE    MOSUNNY   81  54  39 CALM      30.20F
WEST CHESTER   MOSUNNY   81  48  32 S3        30.18F
POTTSTOWN      MOSUNNY   82  51  34 CALM      30.19F
BLUE BELL      MOSUNNY   82  50  33 CALM      30.18F
NORTH PHILA    MOSUNNY   83  54  36 SE7       30.18F
PHILADELPHIA   PTSUNNY   84  50  30 CALM      30.17F
$$